This is the latest recevied weather packets stored in our database for station/object GJ7DNI-13. If no packets are shown the sender has not sent any weather packets the latest 10 day(s).
| Time | Temp. | Humidity | Pressure | Rain* | Wind** | Luminosity | Snow |
|---|---|---|---|---|---|---|---|
| 1777566608 | 23.33° C | 48% | 1014.5 hPa | 0 mm | - | 100 W/m² | - |
| 1777566308 | 23.33° C | 47% | 1014.4 hPa | 0 mm | - | 139 W/m² | - |
| 1777566008 | 23.33° C | 47% | 1014.4 hPa | 0 mm | - | 162 W/m² | - |
| 1777565708 | 23.89° C | 46% | 1014.4 hPa | 0 mm | - | 163 W/m² | - |
| 1777565408 | 23.89° C | 46% | 1014.4 hPa | 0 mm | - | 188 W/m² | - |
| 1777565108 | 23.33° C | 46% | 1014.4 hPa | 0 mm | - | 206 W/m² | - |
| 1777564808 | 23.89° C | 45% | 1014.3 hPa | 0 mm | - | 202 W/m² | - |
| 1777564508 | 24.44° C | 44% | 1014.2 hPa | 0 mm | - | 199 W/m² | - |
| 1777564208 | 23.89° C | 46% | 1014.2 hPa | 0 mm | - | 338 W/m² | - |
| 1777563908 | 23.89° C | 45% | 1014.2 hPa | 0 mm | - | 350 W/m² | - |
| 1777563608 | 24.44° C | 45% | 1014.2 hPa | 0 mm | - | 269 W/m² | - |
| 1777563308 | 24.44° C | 43% | 1014.1 hPa | 0 mm | - | 181 W/m² | - |
| 1777563008 | 25° C | 44% | 1014.1 hPa | 0 mm | - | 255 W/m² | - |
| 1777562708 | 25° C | 42% | 1014.1 hPa | 0 mm | - | 290 W/m² | - |
| 1777562408 | 25° C | 44% | 1014.1 hPa | 0 mm | - | 519 W/m² | - |
| 1777562108 | 24.44° C | 44% | 1014.1 hPa | 0 mm | - | 267 W/m² | - |
| 1777561808 | 24.44° C | 44% | 1014.1 hPa | 0 mm | - | 248 W/m² | - |
| 1777561508 | 24.44° C | 44% | 1014.2 hPa | 0 mm | - | 390 W/m² | - |
| 1777561208 | 25° C | 43% | 1014.1 hPa | 0 mm | - | 253 W/m² | - |
| 1777560908 | 24.44° C | 43% | 1014.1 hPa | 0 mm | - | 253 W/m² | - |
| 1777560608 | 24.44° C | 43% | 1014.2 hPa | 0 mm | - | 255 W/m² | - |
| 1777560308 | 24.44° C | 43% | 1014.1 hPa | 0 mm | - | 478 W/m² | - |
| 1777560008 | 25° C | 42% | 1014.2 hPa | 0 mm | - | 413 W/m² | - |
| 1777559708 | 25° C | 42% | 1014.1 hPa | 0 mm | - | 367 W/m² | - |
| 1777559408 | 25.56° C | 41% | 1014.2 hPa | 0 mm | - | 413 W/m² | - |
* Rain latest hour (hover to see other rain measurements)
** Current wind speed in m/s (hover to see current wind gust speed)